Year,Month,Day,Hour,Minute,Value (Times are PST for temperature in C)
2010,07,26,00,00,16.80
2010,07,26,00,01,16.70
2010,07,26,00,02,16.70
2010,07,26,00,03,16.60
2010,07,26,00,04,16.60
2010,07,26,00,05,16.50
2010,07,26,00,06,16.50
2010,07,26,00,07,16.40
2010,07,26,00,08,16.40
2010,07,26,00,09,16.40
2010,07,26,00,10,16.30
2010,07,26,00,11,16.30
2010,07,26,00,12,16.30
2010,07,26,00,13,16.30
2010,07,26,00,14,16.30
2010,07,26,00,15,16.30
2010,07,26,00,16,16.20
2010,07,26,00,17,16.20
2010,07,26,00,18,16.20
2010,07,26,00,19,16.20
2010,07,26,00,20,16.10
2010,07,26,00,21,16.10
2010,07,26,00,22,16.10
2010,07,26,00,23,16.00
2010,07,26,00,24,16.00
2010,07,26,00,25,16.00
2010,07,26,00,26,15.90
2010,07,26,00,27,15.90
2010,07,26,00,28,15.90
2010,07,26,00,29,15.90
2010,07,26,00,30,15.90
2010,07,26,00,31,15.90
2010,07,26,00,32,15.80
2010,07,26,00,33,15.80
2010,07,26,00,34,15.80
2010,07,26,00,35,15.80
2010,07,26,00,36,15.80
2010,07,26,00,37,15.80
2010,07,26,00,38,15.70
2010,07,26,00,39,15.70
2010,07,26,00,40,15.70
2010,07,26,00,41,15.70
2010,07,26,00,42,15.70
2010,07,26,00,43,15.60
2010,07,26,00,44,15.60
2010,07,26,00,45,15.60
2010,07,26,00,46,15.60
2010,07,26,00,47,15.60
2010,07,26,00,48,15.60
2010,07,26,00,49,15.60
2010,07,26,00,50,15.60
2010,07,26,00,51,15.60
2010,07,26,00,52,15.60
2010,07,26,00,53,15.60
2010,07,26,00,54,15.60
2010,07,26,00,55,15.60
2010,07,26,00,56,15.60
2010,07,26,00,57,15.70
2010,07,26,00,58,15.70
2010,07,26,00,59,15.70
2010,07,26,01,00,15.70
2010,07,26,01,01,15.70
2010,07,26,01,02,15.70
2010,07,26,01,03,15.70
2010,07,26,01,04,15.70
2010,07,26,01,05,15.70
2010,07,26,01,06,15.60
2010,07,26,01,07,15.60
2010,07,26,01,08,15.70
2010,07,26,01,09,15.70
2010,07,26,01,10,15.70
2010,07,26,01,11,15.70
2010,07,26,01,12,15.70
2010,07,26,01,13,15.70
2010,07,26,01,14,15.70
2010,07,26,01,15,15.60
2010,07,26,01,16,15.60
2010,07,26,01,17,15.50
2010,07,26,01,18,15.50
2010,07,26,01,19,15.40
2010,07,26,01,20,15.40
2010,07,26,01,21,15.30
2010,07,26,01,22,15.30
2010,07,26,01,23,15.20
2010,07,26,01,24,15.20
2010,07,26,01,25,15.10
2010,07,26,01,26,15.00
2010,07,26,01,27,15.00
2010,07,26,01,28,15.00
2010,07,26,01,29,15.00
2010,07,26,01,30,15.00
2010,07,26,01,31,15.00
2010,07,26,01,32,15.00
2010,07,26,01,33,15.00
2010,07,26,01,34,15.00
2010,07,26,01,35,15.00
2010,07,26,01,36,15.00
2010,07,26,01,37,14.90
2010,07,26,01,38,14.90
2010,07,26,01,39,14.90
2010,07,26,01,40,14.80
2010,07,26,01,41,14.80
2010,07,26,01,42,14.80
2010,07,26,01,43,14.80
2010,07,26,01,44,14.80
2010,07,26,01,45,14.70
2010,07,26,01,46,14.70
2010,07,26,01,47,14.70
2010,07,26,01,48,14.60
2010,07,26,01,49,14.60
2010,07,26,01,50,14.60
2010,07,26,01,51,14.60
2010,07,26,01,52,14.50
2010,07,26,01,53,14.50
2010,07,26,01,54,14.50
2010,07,26,01,55,14.40
2010,07,26,01,56,14.40
2010,07,26,01,57,14.40
2010,07,26,01,58,14.40
2010,07,26,01,59,14.40
2010,07,26,02,00,14.40
2010,07,26,02,01,14.40
2010,07,26,02,02,14.40
2010,07,26,02,03,14.40
2010,07,26,02,04,14.40
2010,07,26,02,05,14.50
2010,07,26,02,06,14.50
2010,07,26,02,07,14.60
2010,07,26,02,08,14.60
2010,07,26,02,09,14.60
2010,07,26,02,10,14.60
2010,07,26,02,11,14.70
2010,07,26,02,12,14.70
2010,07,26,02,13,14.70
2010,07,26,02,14,14.70
2010,07,26,02,15,14.60
2010,07,26,02,16,14.60
2010,07,26,02,17,14.60
2010,07,26,02,18,14.50
2010,07,26,02,19,14.50
2010,07,26,02,20,14.50
2010,07,26,02,21,14.40
2010,07,26,02,22,14.40
2010,07,26,02,23,14.40
2010,07,26,02,24,14.40
2010,07,26,02,25,14.40
2010,07,26,02,26,14.40
2010,07,26,02,27,14.40
2010,07,26,02,28,14.40
2010,07,26,02,29,14.40
2010,07,26,02,30,14.40
2010,07,26,02,31,14.40
2010,07,26,02,32,14.40
2010,07,26,02,33,14.40
2010,07,26,02,34,14.40
2010,07,26,02,35,14.40
2010,07,26,02,36,14.40
2010,07,26,02,37,14.40
2010,07,26,02,38,14.40
2010,07,26,02,39,14.30
2010,07,26,02,40,14.30
2010,07,26,02,41,14.30
2010,07,26,02,42,14.30
2010,07,26,02,43,14.20
2010,07,26,02,44,14.20
2010,07,26,02,45,14.20
2010,07,26,02,46,14.20
2010,07,26,02,47,14.20
2010,07,26,02,48,14.10
2010,07,26,02,49,14.10
2010,07,26,02,50,14.10
2010,07,26,02,51,14.20
2010,07,26,02,52,14.20
2010,07,26,02,53,14.20
2010,07,26,02,54,14.20
2010,07,26,02,55,14.20
2010,07,26,02,56,14.20
2010,07,26,02,57,14.20
2010,07,26,02,58,14.20
2010,07,26,02,59,14.20
2010,07,26,03,00,14.10
2010,07,26,03,01,14.10
2010,07,26,03,02,14.10
2010,07,26,03,03,14.10
2010,07,26,03,04,14.10
2010,07,26,03,05,14.00
2010,07,26,03,06,14.00
2010,07,26,03,07,14.00
2010,07,26,03,08,14.00
2010,07,26,03,09,13.90
2010,07,26,03,10,13.90
2010,07,26,03,11,13.90
2010,07,26,03,12,13.90
2010,07,26,03,13,13.80
2010,07,26,03,14,13.80
2010,07,26,03,15,13.80
2010,07,26,03,16,13.80
2010,07,26,03,17,13.80
2010,07,26,03,18,13.80
2010,07,26,03,19,13.70
2010,07,26,03,20,13.70
2010,07,26,03,21,13.70
2010,07,26,03,22,13.70
2010,07,26,03,23,13.70
2010,07,26,03,24,13.70
2010,07,26,03,25,13.60
2010,07,26,03,26,13.60
2010,07,26,03,27,13.60
2010,07,26,03,28,13.60
2010,07,26,03,29,13.60
2010,07,26,03,30,13.50
2010,07,26,03,31,13.50
2010,07,26,03,32,13.50
2010,07,26,03,33,13.40
2010,07,26,03,34,13.40
2010,07,26,03,35,13.40
2010,07,26,03,36,13.40
2010,07,26,03,37,13.40
2010,07,26,03,38,13.40
2010,07,26,03,39,13.30
2010,07,26,03,40,13.30
2010,07,26,03,41,13.30
2010,07,26,03,42,13.30
2010,07,26,03,43,13.30
2010,07,26,03,44,13.30
2010,07,26,03,45,13.30
2010,07,26,03,46,13.30
2010,07,26,03,47,13.30
2010,07,26,03,48,13.30
2010,07,26,03,49,13.30
2010,07,26,03,50,13.20
2010,07,26,03,51,13.20
2010,07,26,03,52,13.20
2010,07,26,03,53,13.20
2010,07,26,03,54,13.20
2010,07,26,03,55,13.20
2010,07,26,03,56,13.20
2010,07,26,03,57,13.20
2010,07,26,03,58,13.20
2010,07,26,03,59,13.20
2010,07,26,04,00,13.20
2010,07,26,04,01,13.20
2010,07,26,04,02,13.20
2010,07,26,04,03,13.10
2010,07,26,04,04,13.10
2010,07,26,04,05,13.10
2010,07,26,04,06,13.10
2010,07,26,04,07,13.10
2010,07,26,04,08,13.10
2010,07,26,04,09,13.00
2010,07,26,04,10,13.00
2010,07,26,04,11,13.00
2010,07,26,04,12,13.00
2010,07,26,04,13,13.00
2010,07,26,04,14,13.00
2010,07,26,04,15,13.00
2010,07,26,04,16,12.90
2010,07,26,04,17,12.90
2010,07,26,04,18,12.90
2010,07,26,04,19,12.90
2010,07,26,04,20,12.90
2010,07,26,04,21,12.90
2010,07,26,04,22,12.90
2010,07,26,04,23,12.80
2010,07,26,04,24,12.80
2010,07,26,04,25,12.80
2010,07,26,04,26,12.80
2010,07,26,04,27,12.80
2010,07,26,04,28,12.80
2010,07,26,04,29,12.80
2010,07,26,04,30,12.80
2010,07,26,04,31,12.80
2010,07,26,04,32,12.80
2010,07,26,04,33,12.80
2010,07,26,04,34,12.80
2010,07,26,04,35,12.80
2010,07,26,04,36,12.80
2010,07,26,04,37,12.80
2010,07,26,04,38,12.90
2010,07,26,04,39,12.90
2010,07,26,04,40,12.90
2010,07,26,04,41,12.90
2010,07,26,04,42,12.90
2010,07,26,04,43,12.90
2010,07,26,04,44,12.90
2010,07,26,04,45,12.80
2010,07,26,04,46,12.80
2010,07,26,04,47,12.80
2010,07,26,04,48,12.80
2010,07,26,04,49,12.70
2010,07,26,04,50,12.70
2010,07,26,04,51,12.70
2010,07,26,04,52,12.70
2010,07,26,04,53,12.70
2010,07,26,04,54,12.70
2010,07,26,04,55,12.70
2010,07,26,04,56,12.70
2010,07,26,04,57,12.70
2010,07,26,04,58,12.70
2010,07,26,04,59,12.70
2010,07,26,05,00,12.70
2010,07,26,05,01,12.70
2010,07,26,05,02,12.70
2010,07,26,05,03,12.70
2010,07,26,05,04,12.70
2010,07,26,05,05,12.70
2010,07,26,05,06,12.70
2010,07,26,05,07,12.70
2010,07,26,05,08,12.70
2010,07,26,05,09,12.70
2010,07,26,05,10,12.70
2010,07,26,05,11,12.70
2010,07,26,05,12,12.70
2010,07,26,05,13,12.70
2010,07,26,05,14,12.70
2010,07,26,05,15,12.70
2010,07,26,05,16,12.70
2010,07,26,05,17,12.70
2010,07,26,05,18,12.70
2010,07,26,05,19,12.70
2010,07,26,05,20,12.70
2010,07,26,05,21,12.70
2010,07,26,05,22,12.70
2010,07,26,05,23,12.70
2010,07,26,05,24,12.70
2010,07,26,05,25,12.70
2010,07,26,05,26,12.70
2010,07,26,05,27,12.60
2010,07,26,05,28,12.60
2010,07,26,05,29,12.60
2010,07,26,05,30,12.60
2010,07,26,05,31,12.60
2010,07,26,05,32,12.60
2010,07,26,05,33,12.60
2010,07,26,05,34,12.60
2010,07,26,05,35,12.60
2010,07,26,05,36,12.60
2010,07,26,05,37,12.60
2010,07,26,05,38,12.50
2010,07,26,05,39,12.50
2010,07,26,05,40,12.50
2010,07,26,05,41,12.40
2010,07,26,05,42,12.40
2010,07,26,05,43,12.40
2010,07,26,05,44,12.40
2010,07,26,05,45,12.40
2010,07,26,05,46,12.40
2010,07,26,05,47,12.40
2010,07,26,05,48,12.30
2010,07,26,05,49,12.30
2010,07,26,05,50,12.30
2010,07,26,05,51,12.30
2010,07,26,05,52,12.30
2010,07,26,05,53,12.30
2010,07,26,05,54,12.30
2010,07,26,05,55,12.30
2010,07,26,05,56,12.30
2010,07,26,05,57,12.30
2010,07,26,05,58,12.30
2010,07,26,05,59,12.30
2010,07,26,06,00,12.30
2010,07,26,06,01,12.30
2010,07,26,06,02,12.40
2010,07,26,06,03,12.40
2010,07,26,06,04,12.40
2010,07,26,06,05,12.40
2010,07,26,06,06,12.40
2010,07,26,06,07,12.40
2010,07,26,06,08,12.40
2010,07,26,06,09,12.40
2010,07,26,06,10,12.40
2010,07,26,06,11,12.50
2010,07,26,06,12,12.50
2010,07,26,06,13,12.50
2010,07,26,06,14,12.60
2010,07,26,06,15,12.60
2010,07,26,06,16,12.60
2010,07,26,06,17,12.60
2010,07,26,06,18,12.70
2010,07,26,06,19,12.70
2010,07,26,06,20,12.80
2010,07,26,06,21,12.80
2010,07,26,06,22,12.80
2010,07,26,06,23,12.90
2010,07,26,06,24,12.90
2010,07,26,06,25,13.00
2010,07,26,06,26,13.00
2010,07,26,06,27,13.10
2010,07,26,06,28,13.20
2010,07,26,06,29,13.20
2010,07,26,06,30,13.30
2010,07,26,06,31,13.40
2010,07,26,06,32,13.50
2010,07,26,06,33,13.50
2010,07,26,06,34,13.60
2010,07,26,06,35,13.70
2010,07,26,06,36,13.80
2010,07,26,06,37,13.80
2010,07,26,06,38,13.90
2010,07,26,06,39,13.90
2010,07,26,06,40,14.00
2010,07,26,06,41,14.10
2010,07,26,06,42,14.10
2010,07,26,06,43,14.20
2010,07,26,06,44,14.20
2010,07,26,06,45,14.20
2010,07,26,06,46,14.30
2010,07,26,06,47,14.30
2010,07,26,06,48,14.30
2010,07,26,06,49,14.40
2010,07,26,06,50,14.40
2010,07,26,06,51,14.40
2010,07,26,06,52,14.50
2010,07,26,06,53,14.50
2010,07,26,06,54,14.50
2010,07,26,06,55,14.60
2010,07,26,06,56,14.60
2010,07,26,06,57,14.60
2010,07,26,06,58,14.70
2010,07,26,06,59,14.70
2010,07,26,07,00,14.70
2010,07,26,07,01,14.80
2010,07,26,07,02,14.80
2010,07,26,07,03,14.90
2010,07,26,07,04,14.90
2010,07,26,07,05,15.00
2010,07,26,07,06,15.00
2010,07,26,07,07,15.00
2010,07,26,07,08,15.00
2010,07,26,07,09,15.00
2010,07,26,07,10,15.00
2010,07,26,07,11,15.00
2010,07,26,07,12,15.10
2010,07,26,07,13,15.20
2010,07,26,07,14,15.20
2010,07,26,07,15,15.30
2010,07,26,07,16,15.30
2010,07,26,07,17,15.40
2010,07,26,07,18,15.40
2010,07,26,07,19,15.50
2010,07,26,07,20,15.50
2010,07,26,07,21,15.60
2010,07,26,07,22,15.60
2010,07,26,07,23,15.60
2010,07,26,07,24,15.70
2010,07,26,07,25,15.70
2010,07,26,07,26,15.80
2010,07,26,07,27,15.80
2010,07,26,07,28,15.80
2010,07,26,07,29,15.90
2010,07,26,07,30,15.90
2010,07,26,07,31,15.90
2010,07,26,07,32,16.00
2010,07,26,07,33,16.00
2010,07,26,07,34,16.00
2010,07,26,07,35,16.00
2010,07,26,07,36,16.10
2010,07,26,07,37,16.10
2010,07,26,07,38,16.10
2010,07,26,07,39,16.20
2010,07,26,07,40,16.20
2010,07,26,07,41,16.20
2010,07,26,07,42,16.20
2010,07,26,07,43,16.30
2010,07,26,07,44,16.30
2010,07,26,07,45,16.30
2010,07,26,07,46,16.30
2010,07,26,07,47,16.30
2010,07,26,07,48,16.30
2010,07,26,07,49,16.30
2010,07,26,07,50,16.40
2010,07,26,07,51,16.40
2010,07,26,07,52,16.40
2010,07,26,07,53,16.40
2010,07,26,07,54,16.50
2010,07,26,07,55,16.50
2010,07,26,07,56,16.60
2010,07,26,07,57,16.60
2010,07,26,07,58,16.60
2010,07,26,07,59,16.70
2010,07,26,08,00,16.70
2010,07,26,08,01,16.70
2010,07,26,08,02,16.80
2010,07,26,08,03,16.80
2010,07,26,08,04,16.80
2010,07,26,08,05,16.80
2010,07,26,08,06,16.80
2010,07,26,08,07,16.80
2010,07,26,08,08,16.80
2010,07,26,08,09,16.80
2010,07,26,08,10,16.80
2010,07,26,08,11,16.90
2010,07,26,08,12,16.90
2010,07,26,08,13,16.90
2010,07,26,08,14,16.90
2010,07,26,08,15,16.90
2010,07,26,08,16,16.90
2010,07,26,08,17,17.00
2010,07,26,08,18,17.00
2010,07,26,08,19,17.10
2010,07,26,08,20,17.10
2010,07,26,08,21,17.10
2010,07,26,08,22,17.10
2010,07,26,08,23,17.10
2010,07,26,08,24,17.00
2010,07,26,08,25,17.00
2010,07,26,08,26,17.00
2010,07,26,08,27,17.00
2010,07,26,08,28,17.00
2010,07,26,08,29,17.10
2010,07,26,08,30,17.10
2010,07,26,08,31,17.10
2010,07,26,08,32,17.20
2010,07,26,08,33,17.20
2010,07,26,08,34,17.20
2010,07,26,08,35,17.20
2010,07,26,08,36,17.20
2010,07,26,08,37,17.30
2010,07,26,08,38,17.30
2010,07,26,08,39,17.30
2010,07,26,08,40,17.30
2010,07,26,08,41,17.40
2010,07,26,08,42,17.40
2010,07,26,08,43,17.40
2010,07,26,08,44,17.40
2010,07,26,08,45,17.40
2010,07,26,08,46,17.40
2010,07,26,08,47,17.40
2010,07,26,08,48,17.50
2010,07,26,08,49,17.50
2010,07,26,08,50,17.50
2010,07,26,08,51,17.50
2010,07,26,08,52,17.50
2010,07,26,08,53,17.50
2010,07,26,08,54,17.50
2010,07,26,08,55,17.50
2010,07,26,08,56,17.50
2010,07,26,08,57,17.50
2010,07,26,08,58,17.40
2010,07,26,08,59,17.40
2010,07,26,09,00,17.40
2010,07,26,09,01,17.40
2010,07,26,09,02,17.50
2010,07,26,09,03,17.50
2010,07,26,09,04,17.60
2010,07,26,09,05,17.60
2010,07,26,09,06,17.60
2010,07,26,09,07,17.60
2010,07,26,09,08,17.60
2010,07,26,09,09,17.60
2010,07,26,09,10,17.60
2010,07,26,09,11,17.50
2010,07,26,09,12,17.50
2010,07,26,09,13,17.40
2010,07,26,09,14,17.30
2010,07,26,09,15,17.30
2010,07,26,09,16,17.20
2010,07,26,09,17,17.20
2010,07,26,09,18,17.10
2010,07,26,09,19,17.00
2010,07,26,09,20,17.00
2010,07,26,09,21,16.90
2010,07,26,09,22,16.90
2010,07,26,09,23,16.90
2010,07,26,09,24,16.80
2010,07,26,09,25,16.80
2010,07,26,09,26,16.90
2010,07,26,09,27,16.90
2010,07,26,09,28,17.00
2010,07,26,09,29,17.00
2010,07,26,09,30,17.10
2010,07,26,09,31,17.10
2010,07,26,09,32,17.20
2010,07,26,09,33,17.20
2010,07,26,09,34,17.20
2010,07,26,09,35,17.30
2010,07,26,09,36,17.30
2010,07,26,09,37,17.30
2010,07,26,09,38,17.30
2010,07,26,09,39,17.30
2010,07,26,09,40,17.20
2010,07,26,09,41,17.20
2010,07,26,09,42,17.20
2010,07,26,09,43,17.10
2010,07,26,09,44,17.00
2010,07,26,09,45,16.90
2010,07,26,09,46,16.90
2010,07,26,09,47,16.90
2010,07,26,09,48,16.80
2010,07,26,09,49,16.80
2010,07,26,09,50,16.80
2010,07,26,09,51,16.80
2010,07,26,09,52,16.70
2010,07,26,09,53,16.70
2010,07,26,09,54,16.70
2010,07,26,09,55,16.70
2010,07,26,09,56,16.70
2010,07,26,09,57,16.70
2010,07,26,09,58,16.70
2010,07,26,09,59,16.70
2010,07,26,10,00,16.70
2010,07,26,10,01,16.70
2010,07,26,10,02,16.70
2010,07,26,10,03,16.80
2010,07,26,10,04,16.70
2010,07,26,10,05,16.70
2010,07,26,10,06,16.70
2010,07,26,10,07,16.70
2010,07,26,10,08,16.80
2010,07,26,10,09,16.80
2010,07,26,10,10,16.80
2010,07,26,10,11,16.90
2010,07,26,10,12,16.90
2010,07,26,10,13,17.00
2010,07,26,10,14,17.10
2010,07,26,10,15,17.20
2010,07,26,10,16,17.20
2010,07,26,10,17,17.30
2010,07,26,10,18,17.30
2010,07,26,10,19,17.40
2010,07,26,10,20,17.40
2010,07,26,10,21,17.40
2010,07,26,10,22,17.50
2010,07,26,10,23,17.60
2010,07,26,10,24,17.60
2010,07,26,10,25,17.70
2010,07,26,10,26,17.80
2010,07,26,10,27,17.80
2010,07,26,10,28,17.90
2010,07,26,10,29,17.90
2010,07,26,10,30,17.90
2010,07,26,10,31,17.90
2010,07,26,10,32,17.90
2010,07,26,10,33,18.00
2010,07,26,10,34,18.00
2010,07,26,10,35,18.10
2010,07,26,10,36,18.20
2010,07,26,10,37,18.20
2010,07,26,10,38,18.20
2010,07,26,10,39,18.20
2010,07,26,10,40,18.20
2010,07,26,10,41,18.20
2010,07,26,10,42,18.20
2010,07,26,10,43,18.10
2010,07,26,10,44,18.00
2010,07,26,10,45,18.00
2010,07,26,10,46,17.90
2010,07,26,10,47,17.80
2010,07,26,10,48,17.70
2010,07,26,10,49,17.70
2010,07,26,10,50,17.70
2010,07,26,10,51,17.70
2010,07,26,10,52,17.70
2010,07,26,10,53,17.70
2010,07,26,10,54,17.70
2010,07,26,10,55,17.80
2010,07,26,10,56,17.80
2010,07,26,10,57,17.90
2010,07,26,10,58,17.90
2010,07,26,10,59,17.90
2010,07,26,11,00,17.90
2010,07,26,11,01,17.80
2010,07,26,11,02,17.80
2010,07,26,11,03,17.80
2010,07,26,11,04,17.80
2010,07,26,11,05,17.80
2010,07,26,11,06,17.80
2010,07,26,11,07,17.90
2010,07,26,11,08,17.90
2010,07,26,11,09,17.90
2010,07,26,11,10,17.90
2010,07,26,11,11,17.90
2010,07,26,11,12,17.90
2010,07,26,11,13,18.00
2010,07,26,11,14,18.00
2010,07,26,11,15,18.00
2010,07,26,11,16,18.10
2010,07,26,11,17,18.10
2010,07,26,11,18,18.10
2010,07,26,11,19,18.10
2010,07,26,11,20,18.10
2010,07,26,11,21,18.10
2010,07,26,11,22,18.10
2010,07,26,11,23,18.20
2010,07,26,11,24,18.30
2010,07,26,11,25,18.30
2010,07,26,11,26,18.40
2010,07,26,11,27,18.50
2010,07,26,11,28,18.50
2010,07,26,11,29,18.60
2010,07,26,11,30,18.70
2010,07,26,11,31,18.70
2010,07,26,11,32,18.70
2010,07,26,11,33,18.80
2010,07,26,11,34,18.80
2010,07,26,11,35,18.90
2010,07,26,11,36,18.90
2010,07,26,11,37,18.90
2010,07,26,11,38,18.90
2010,07,26,11,39,18.90
2010,07,26,11,40,18.90
2010,07,26,11,41,18.90
2010,07,26,11,42,19.00
2010,07,26,11,43,19.00
2010,07,26,11,44,19.10
2010,07,26,11,45,19.10
2010,07,26,11,46,19.10
2010,07,26,11,47,19.20
2010,07,26,11,48,19.20
2010,07,26,11,49,19.20
2010,07,26,11,50,19.20
2010,07,26,11,51,19.20
2010,07,26,11,52,19.20
2010,07,26,11,53,19.20
2010,07,26,11,54,19.20
2010,07,26,11,55,19.20
2010,07,26,11,56,19.20
2010,07,26,11,57,19.20
2010,07,26,11,58,19.10
2010,07,26,11,59,19.10
2010,07,26,12,00,19.00
2010,07,26,12,01,19.00
2010,07,26,12,02,19.00
2010,07,26,12,03,18.90
2010,07,26,12,04,18.90
2010,07,26,12,05,18.90
2010,07,26,12,06,18.80
2010,07,26,12,07,18.90
2010,07,26,12,08,18.90
2010,07,26,12,09,18.90
2010,07,26,12,10,18.90
2010,07,26,12,11,19.00
2010,07,26,12,12,19.00
2010,07,26,12,13,19.00
2010,07,26,12,14,18.90
2010,07,26,12,15,18.90
2010,07,26,12,16,18.90
2010,07,26,12,17,18.90
2010,07,26,12,18,18.90
2010,07,26,12,19,19.00
2010,07,26,12,20,19.00
2010,07,26,12,21,18.90
2010,07,26,12,22,18.90
2010,07,26,12,23,18.90
2010,07,26,12,24,19.00
2010,07,26,12,25,19.00
2010,07,26,12,26,19.10
2010,07,26,12,27,19.10
2010,07,26,12,28,19.10
2010,07,26,12,29,19.10
2010,07,26,12,30,19.00
2010,07,26,12,31,19.00
2010,07,26,12,32,18.90
2010,07,26,12,33,18.90
2010,07,26,12,34,18.90
2010,07,26,12,35,18.90
2010,07,26,12,36,18.90
2010,07,26,12,37,18.90
2010,07,26,12,38,18.90
2010,07,26,12,39,19.00
2010,07,26,12,40,19.00
2010,07,26,12,41,19.00
2010,07,26,12,42,19.00
2010,07,26,12,43,19.00
2010,07,26,12,44,19.10
2010,07,26,12,45,19.10
2010,07,26,12,46,19.10
2010,07,26,12,47,19.10
2010,07,26,12,48,19.00
2010,07,26,12,49,19.00
2010,07,26,12,50,18.90
2010,07,26,12,51,18.90
2010,07,26,12,52,18.90
2010,07,26,12,53,18.90
2010,07,26,12,54,18.90
2010,07,26,12,55,18.80
2010,07,26,12,56,18.80
2010,07,26,12,57,18.80
2010,07,26,12,58,18.80
2010,07,26,12,59,18.80
2010,07,26,13,00,18.80
2010,07,26,13,01,18.80
2010,07,26,13,02,18.90
2010,07,26,13,03,18.90
2010,07,26,13,04,18.90
2010,07,26,13,05,19.00
2010,07,26,13,06,19.00
2010,07,26,13,07,19.10
2010,07,26,13,08,19.10
2010,07,26,13,09,19.10
2010,07,26,13,10,19.20
2010,07,26,13,11,19.20
2010,07,26,13,12,19.20
2010,07,26,13,13,19.20
2010,07,26,13,14,19.30
2010,07,26,13,15,19.30
2010,07,26,13,16,19.40
2010,07,26,13,17,19.40
2010,07,26,13,18,19.40
2010,07,26,13,19,19.50
2010,07,26,13,20,19.50
2010,07,26,13,21,19.50
2010,07,26,13,22,19.50
2010,07,26,13,23,19.50
2010,07,26,13,24,19.40
2010,07,26,13,25,19.40
2010,07,26,13,26,19.30
2010,07,26,13,27,19.30
2010,07,26,13,28,19.30
2010,07,26,13,29,19.30
2010,07,26,13,30,19.30
2010,07,26,13,31,19.30
2010,07,26,13,32,19.20
2010,07,26,13,33,19.20
2010,07,26,13,34,19.30
2010,07,26,13,35,19.30
2010,07,26,13,36,19.30
2010,07,26,13,37,19.20
2010,07,26,13,38,19.20
2010,07,26,13,39,19.20
2010,07,26,13,40,19.10
2010,07,26,13,41,19.00
2010,07,26,13,42,19.00
2010,07,26,13,43,18.90
2010,07,26,13,44,18.90
2010,07,26,13,45,19.00
2010,07,26,13,46,19.00
2010,07,26,13,47,19.10
2010,07,26,13,48,19.10
2010,07,26,13,49,19.10
2010,07,26,13,50,19.20
2010,07,26,13,51,19.20
2010,07,26,13,52,19.30
2010,07,26,13,53,19.30
2010,07,26,13,54,19.40
2010,07,26,13,55,19.40
2010,07,26,13,56,19.40
2010,07,26,13,57,19.50
2010,07,26,13,58,19.50
2010,07,26,13,59,19.60
2010,07,26,14,00,19.60
2010,07,26,14,01,19.60
2010,07,26,14,02,19.70
2010,07,26,14,03,19.70
2010,07,26,14,04,19.80
2010,07,26,14,05,19.80
2010,07,26,14,06,19.80
2010,07,26,14,07,19.90
2010,07,26,14,08,19.90
2010,07,26,14,09,20.00
2010,07,26,14,10,20.00
2010,07,26,14,11,20.10
2010,07,26,14,12,20.20
2010,07,26,14,13,20.30
2010,07,26,14,14,20.40
2010,07,26,14,15,20.50
2010,07,26,14,16,20.60
2010,07,26,14,17,20.70
2010,07,26,14,18,20.70
2010,07,26,14,19,20.70
2010,07,26,14,20,20.80
2010,07,26,14,21,20.80
2010,07,26,14,22,20.90
2010,07,26,14,23,20.90
2010,07,26,14,24,21.00
2010,07,26,14,25,21.10
2010,07,26,14,26,21.10
2010,07,26,14,27,21.20
2010,07,26,14,28,21.20
2010,07,26,14,29,21.20
2010,07,26,14,30,21.30
2010,07,26,14,31,21.30
2010,07,26,14,32,21.40
2010,07,26,14,33,21.50
2010,07,26,14,34,21.60
2010,07,26,14,35,21.60
2010,07,26,14,36,21.70
2010,07,26,14,37,21.80
2010,07,26,14,38,21.80
2010,07,26,14,39,21.90
2010,07,26,14,40,22.00
2010,07,26,14,41,22.00
2010,07,26,14,42,22.10
2010,07,26,14,43,22.20
2010,07,26,14,44,22.20
2010,07,26,14,45,22.30
2010,07,26,14,46,22.30
2010,07,26,14,47,22.40
2010,07,26,14,48,22.40
2010,07,26,14,49,22.40
2010,07,26,14,50,22.40
2010,07,26,14,51,22.40
2010,07,26,14,52,22.40
2010,07,26,14,53,22.40
2010,07,26,14,54,22.40
2010,07,26,14,55,22.30
2010,07,26,14,56,22.40
2010,07,26,14,57,22.40
2010,07,26,14,58,22.40
2010,07,26,14,59,22.40
2010,07,26,15,00,22.50
2010,07,26,15,01,22.60
2010,07,26,15,02,22.60
2010,07,26,15,03,22.70
2010,07,26,15,04,22.70
2010,07,26,15,05,22.70
2010,07,26,15,06,22.60
2010,07,26,15,07,22.60
2010,07,26,15,08,22.60
2010,07,26,15,09,22.60
2010,07,26,15,10,22.60
2010,07,26,15,11,22.60
2010,07,26,15,12,22.60
2010,07,26,15,13,22.60
2010,07,26,15,14,22.60
2010,07,26,15,15,22.60
2010,07,26,15,16,22.60
2010,07,26,15,17,22.60
2010,07,26,15,18,22.70
2010,07,26,15,19,22.70
2010,07,26,15,20,22.70
2010,07,26,15,21,22.70
2010,07,26,15,22,22.80
2010,07,26,15,23,22.80
2010,07,26,15,24,22.90
2010,07,26,15,25,22.90
2010,07,26,15,26,23.00
2010,07,26,15,27,23.00
2010,07,26,15,28,23.10
2010,07,26,15,29,23.20
2010,07,26,15,30,23.20
2010,07,26,15,31,23.30
2010,07,26,15,32,23.30
2010,07,26,15,33,23.40
2010,07,26,15,34,23.40
2010,07,26,15,35,23.50
2010,07,26,15,36,23.60
2010,07,26,15,37,23.60
2010,07,26,15,38,23.70
2010,07,26,15,39,23.70
2010,07,26,15,40,23.70
2010,07,26,15,41,23.70
2010,07,26,15,42,23.70
2010,07,26,15,43,23.70
2010,07,26,15,44,23.70
2010,07,26,15,45,23.70
2010,07,26,15,46,23.70
2010,07,26,15,47,23.80
2010,07,26,15,48,23.90
2010,07,26,15,49,23.90
2010,07,26,15,50,23.90
2010,07,26,15,51,24.00
2010,07,26,15,52,24.00
2010,07,26,15,53,24.00
2010,07,26,15,54,24.10
2010,07,26,15,55,24.10
2010,07,26,15,56,24.10
2010,07,26,15,57,24.20
2010,07,26,15,58,24.30
2010,07,26,15,59,24.30
2010,07,26,16,00,24.40
2010,07,26,16,01,24.40
2010,07,26,16,02,24.40
2010,07,26,16,03,24.40
2010,07,26,16,04,24.50
2010,07,26,16,05,24.50
2010,07,26,16,06,24.50
2010,07,26,16,07,24.40
2010,07,26,16,08,24.40
2010,07,26,16,09,24.40
2010,07,26,16,10,24.40
2010,07,26,16,11,24.40
2010,07,26,16,12,24.40
2010,07,26,16,13,24.40
2010,07,26,16,14,24.40
2010,07,26,16,15,24.50
2010,07,26,16,16,24.50
2010,07,26,16,17,24.60
2010,07,26,16,18,24.60
2010,07,26,16,19,24.70
2010,07,26,16,20,24.70
2010,07,26,16,21,24.70
2010,07,26,16,22,24.80
2010,07,26,16,23,24.80
2010,07,26,16,24,24.80
2010,07,26,16,25,24.80
2010,07,26,16,26,24.80
2010,07,26,16,27,24.80
2010,07,26,16,28,24.80
2010,07,26,16,29,24.80
2010,07,26,16,30,24.80
2010,07,26,16,31,24.90
2010,07,26,16,32,24.90
2010,07,26,16,33,24.90
2010,07,26,16,34,24.90
2010,07,26,16,35,24.90
2010,07,26,16,36,25.00
2010,07,26,16,37,25.00
2010,07,26,16,38,25.10
2010,07,26,16,39,25.20
2010,07,26,16,40,25.20
2010,07,26,16,41,25.20
2010,07,26,16,42,25.20
2010,07,26,16,43,25.20
2010,07,26,16,44,25.20
2010,07,26,16,45,25.20
2010,07,26,16,46,25.20
2010,07,26,16,47,25.20
2010,07,26,16,48,25.10
2010,07,26,16,49,25.10
2010,07,26,16,50,25.00
2010,07,26,16,51,25.00
2010,07,26,16,52,24.90
2010,07,26,16,53,24.90
2010,07,26,16,54,24.90
2010,07,26,16,55,24.90
2010,07,26,16,56,24.90
2010,07,26,16,57,24.90
2010,07,26,16,58,24.80
2010,07,26,16,59,24.80
2010,07,26,17,00,24.80
2010,07,26,17,01,24.70
2010,07,26,17,02,24.70
2010,07,26,17,03,24.70
2010,07,26,17,04,24.80
2010,07,26,17,05,24.80
2010,07,26,17,06,24.80
2010,07,26,17,07,24.90
2010,07,26,17,08,24.90
2010,07,26,17,09,24.90
2010,07,26,17,10,24.90
2010,07,26,17,11,24.90
2010,07,26,17,12,25.00
2010,07,26,17,13,25.00
2010,07,26,17,14,25.00
2010,07,26,17,15,24.90
2010,07,26,17,16,24.90
2010,07,26,17,17,24.90
2010,07,26,17,18,24.90
2010,07,26,17,19,24.90